Location: Cuzcurrita-R�o Tir�n
(42.5415°N, 2.9642°W)
Time: 04:53:09
(UTC+00:00)

Okean 3 - Pass Details

Date: 27 February 2020
Orbit: 575 x 602 km, 82.5° (Epoch: 02 April)

Event Time Altitude Azimuth Distance (km) Brightness Sun altitude
Rises 19:27:07 0° 359° (N) 2,819 7.0 -17.1°
Reaches altitude 10° 19:29:26 10° 6° (N) 1,910 6.1 -17.5°
Maximum altitude 19:33:25 40° 77° (ENE) 857 3.8 -18.3°
Enters shadow 19:33:29 40° 80° (E) 857 3.8 -18.3°
